Tracking 18871 objects as of 13-Dec-2017
HD Live streaming from Space Station
objects crossing your sky now

INTELSAT 501

Track INTELSAT 501 now!
INTELSAT 501 is classified as:


NORAD ID: 12474
Int'l Code: 1981-050A
Perigee: 36,158.5 km
Apogee: 36,233.8 km
Inclination: 15.0 °
Period: 1,456.7 minutes
Semi major axis: 42567 km
RCS: 3.981 m2 (large)
Launch date: May 23, 1981
Source: International Telecommunications Satellite Organization (ITSO)
Launch site: AIR FORCE EASTERN TEST RANGE (AFETR)
aabbcc
Your satellite tracking list
Your tracking list is empty




NASA's NSSDC Master Catalog

Two Line Element Set (TLE):
1 12474U 81050A   17345.91157323 -.00000213 +00000-0 +00000-0 0  9990
2 12474 014.9648 350.5372 0008852 249.6836 289.4536 00.98853340106934
Source of the keplerian elements: AFSPC